Time,TemperatureF,DewpointF,PressureIn,WindDirection,WindDirectionDegrees,WindSpeedMPH,WindSpeedGustMPH,Humidity,HourlyPrecipIn,Conditions,Clouds,dailyrainin,SoftwareType,DateUTC
2013-03-11 00:00:00,37.5,33.4,30.31,SSW,194,0.0,0.0,85,0.00,,---,0.00,VWS V14.00,2013-03-11 04:00:00,
2013-03-11 00:02:00,37.5,33.4,30.31,SSW,194,0.0,0.0,85,0.00,,---,0.00,VWS V14.00,2013-03-11 04:02:00,
2013-03-11 00:07:00,37.6,33.5,30.32,SSW,194,0.0,0.0,85,0.00,,---,0.00,VWS V14.00,2013-03-11 04:07:00,
2013-03-11 00:12:00,37.7,33.6,30.31,SSW,194,0.0,0.0,85,0.00,,---,0.00,VWS V14.00,2013-03-11 04:12:00,
2013-03-11 00:17:00,37.9,34.1,30.32,SSW,194,0.0,3.0,86,0.00,,---,0.00,VWS V14.00,2013-03-11 04:17:00,
2013-03-11 00:22:00,38.1,34.3,30.31,SSW,207,2.0,5.0,86,0.00,,---,0.00,VWS V14.00,2013-03-11 04:22:00,
2013-03-11 00:27:00,38.3,34.5,30.32,SSW,207,0.0,0.0,86,0.00,,---,0.00,VWS V14.00,2013-03-11 04:27:00,
2013-03-11 00:32:00,38.5,34.4,30.32,SSW,207,0.0,1.0,85,0.00,,---,0.00,VWS V14.00,2013-03-11 04:32:00,
2013-03-11 00:37:00,38.6,34.5,30.32,SSW,207,0.0,1.0,85,0.00,,---,0.00,VWS V14.00,2013-03-11 04:37:00,
2013-03-11 00:42:00,38.7,34.6,30.32,SSW,207,0.0,2.0,85,0.00,,---,0.00,VWS V14.00,2013-03-11 04:42:00,
2013-03-11 00:47:00,38.7,34.6,30.32,SSW,207,2.0,3.0,85,0.00,,---,0.00,VWS V14.00,2013-03-11 04:47:00,
2013-03-11 00:52:00,38.8,34.7,30.32,WSW,249,0.0,5.0,85,0.00,,---,0.00,VWS V14.00,2013-03-11 04:52:00,
2013-03-11 00:57:00,38.8,36.1,30.31,SW,216,0.0,4.0,90,0.00,,---,0.00,VWS V14.00,2013-03-11 04:57:00,
2013-03-11 01:02:00,38.9,34.8,30.31,SW,216,2.0,4.0,85,0.00,,---,0.00,VWS V14.00,2013-03-11 05:02:00,
2013-03-11 01:07:00,38.9,34.8,30.29,SSW,205,2.0,4.0,85,0.00,,---,0.00,VWS V14.00,2013-03-11 05:07:00,
2013-03-11 01:12:00,39.0,34.9,30.29,SSW,194,3.0,4.0,85,0.00,,---,0.00,VWS V14.00,2013-03-11 05:12:00,
2013-03-11 01:17:00,39.0,34.9,30.29,SSW,194,0.0,4.0,85,0.00,,---,0.00,VWS V14.00,2013-03-11 05:17:00,
2013-03-11 01:22:00,39.0,34.9,30.31,SSW,194,0.0,4.0,85,0.00,,---,0.00,VWS V14.00,2013-03-11 05:22:00,
2013-03-11 01:28:00,39.0,34.9,30.31,SSW,194,0.0,0.0,85,0.00,,---,0.00,VWS V14.00,2013-03-11 05:28:00,
2013-03-11 01:33:00,39.1,35.0,30.31,SSW,194,0.0,0.0,85,0.00,,---,0.00,VWS V14.00,2013-03-11 05:33:00,
2013-03-11 01:38:00,39.0,34.9,30.30,SSW,194,0.0,0.0,85,0.00,,---,0.00,VWS V14.00,2013-03-11 05:38:00,
2013-03-11 01:43:00,39.0,34.9,30.30,SSW,194,0.0,0.0,85,0.00,,---,0.00,VWS V14.00,2013-03-11 05:43:00,
2013-03-11 01:48:00,39.1,35.0,30.30,SSW,194,0.0,0.0,85,0.00,,---,0.00,VWS V14.00,2013-03-11 05:48:00,
2013-03-11 01:53:00,39.1,35.0,30.30,SSW,194,0.0,0.0,85,0.00,,---,0.00,VWS V14.00,2013-03-11 05:53:00,
2013-03-11 01:58:00,39.0,34.9,30.29,SSW,194,0.0,0.0,85,0.00,,---,0.00,VWS V14.00,2013-03-11 05:58:00,
2013-03-11 02:03:00,39.1,35.0,30.29,SSW,194,0.0,0.0,85,0.00,,---,0.00,VWS V14.00,2013-03-11 06:03:00,
2013-03-11 02:08:00,39.1,35.0,30.29,SSW,194,0.0,0.0,85,0.00,,---,0.00,VWS V14.00,2013-03-11 06:08:00,
2013-03-11 02:13:00,39.1,35.0,30.29,SSW,194,0.0,0.0,85,0.00,,---,0.00,VWS V14.00,2013-03-11 06:13:00,
2013-03-11 02:18:00,39.1,35.0,30.28,SSW,194,0.0,0.0,85,0.00,,---,0.00,VWS V14.00,2013-03-11 06:18:00,
2013-03-11 02:23:00,39.1,35.0,30.29,SSW,194,0.0,0.0,85,0.00,,---,0.00,VWS V14.00,2013-03-11 06:23:00,
2013-03-11 02:28:00,39.1,35.0,30.29,SSW,194,0.0,0.0,85,0.00,,---,0.00,VWS V14.00,2013-03-11 06:28:00,
2013-03-11 02:33:00,39.2,35.1,30.29,SSW,194,0.0,0.0,85,0.00,,---,0.00,VWS V14.00,2013-03-11 06:33:00,
2013-03-11 02:38:00,39.2,35.1,30.29,SSW,194,0.0,0.0,85,0.00,,---,0.00,VWS V14.00,2013-03-11 06:38:00,
2013-03-11 02:43:00,39.2,35.1,30.29,SSW,194,0.0,0.0,85,0.00,,---,0.00,VWS V14.00,2013-03-11 06:43:00,
2013-03-11 02:48:00,39.2,35.1,30.28,SSW,194,0.0,0.0,85,0.00,,---,0.00,VWS V14.00,2013-03-11 06:48:00,
2013-03-11 02:53:00,39.2,35.1,30.28,SSW,194,0.0,0.0,85,0.00,,---,0.00,VWS V14.00,2013-03-11 06:53:00,
2013-03-11 02:58:00,39.2,35.1,30.28,SSW,194,0.0,0.0,85,0.00,,---,0.00,VWS V14.00,2013-03-11 06:58:00,
2013-03-11 03:03:00,39.3,35.2,30.27,SSW,194,0.0,0.0,85,0.00,,---,0.00,VWS V14.00,2013-03-11 07:03:00,
2013-03-11 03:08:00,39.3,35.2,30.27,SSW,194,0.0,0.0,85,0.00,,---,0.00,VWS V14.00,2013-03-11 07:08:00,
2013-03-11 03:13:00,39.3,35.2,30.27,SSW,194,0.0,0.0,85,0.00,,---,0.00,VWS V14.00,2013-03-11 07:13:00,
2013-03-11 03:18:00,39.4,35.3,30.27,SSW,194,0.0,0.0,85,0.00,,---,0.00,VWS V14.00,2013-03-11 07:18:00,
2013-03-11 03:23:00,39.4,35.3,30.27,SSW,194,0.0,0.0,85,0.00,,---,0.00,VWS V14.00,2013-03-11 07:23:00,
2013-03-11 03:28:00,39.4,35.3,30.27,SSW,194,0.0,0.0,85,0.00,,---,0.00,VWS V14.00,2013-03-11 07:28:00,
2013-03-11 03:33:00,39.4,35.3,30.27,SSW,194,0.0,0.0,85,0.00,,---,0.00,VWS V14.00,2013-03-11 07:33:00,
2013-03-11 03:38:00,39.4,35.3,30.28,SSW,194,0.0,0.0,85,0.00,,---,0.00,VWS V14.00,2013-03-11 07:38:00,
2013-03-11 03:43:00,39.4,35.3,30.28,SSW,194,0.0,0.0,85,0.00,,---,0.00,VWS V14.00,2013-03-11 07:43:00,
2013-03-11 03:48:00,39.5,35.4,30.28,SSW,194,0.0,0.0,85,0.00,,---,0.00,VWS V14.00,2013-03-11 07:48:00,
2013-03-11 03:53:00,39.4,35.3,30.27,SSW,194,0.0,0.0,85,0.00,,---,0.00,VWS V14.00,2013-03-11 07:53:00,
2013-03-11 03:58:00,39.5,35.4,30.27,SSW,194,0.0,0.0,85,0.00,,---,0.00,VWS V14.00,2013-03-11 07:58:00,
2013-03-11 04:03:00,39.5,35.4,30.27,SSW,194,0.0,0.0,85,0.00,,---,0.00,VWS V14.00,2013-03-11 08:03:00,
2013-03-11 04:08:00,39.5,35.4,30.26,SSW,194,0.0,0.0,85,0.00,,---,0.00,VWS V14.00,2013-03-11 08:08:00,
2013-03-11 04:13:00,39.6,35.5,30.26,SSW,194,0.0,0.0,85,0.00,,---,0.00,VWS V14.00,2013-03-11 08:13:00,
2013-03-11 04:18:00,39.7,35.6,30.26,SSW,194,0.0,0.0,85,0.00,,---,0.00,VWS V14.00,2013-03-11 08:18:00,
2013-03-11 04:23:00,39.7,35.6,30.26,SSW,194,0.0,0.0,85,0.00,,---,0.00,VWS V14.00,2013-03-11 08:23:00,
2013-03-11 04:28:00,39.7,35.6,30.26,SSW,194,0.0,0.0,85,0.00,,---,0.00,VWS V14.00,2013-03-11 08:28:00,
2013-03-11 04:33:00,39.8,35.7,30.26,SSW,194,0.0,0.0,85,0.00,,---,0.00,VWS V14.00,2013-03-11 08:33:00,
2013-03-11 04:39:00,39.8,35.7,30.26,SSW,194,0.0,0.0,85,0.00,,---,0.00,VWS V14.00,2013-03-11 08:39:00,
2013-03-11 04:44:00,39.8,35.7,30.26,SSW,194,0.0,0.0,85,0.00,,---,0.00,VWS V14.00,2013-03-11 08:44:00,
2013-03-11 04:49:00,39.8,35.7,30.26,SSW,194,0.0,0.0,85,0.00,,---,0.00,VWS V14.00,2013-03-11 08:49:00,
2013-03-11 04:54:00,39.8,35.7,30.26,SSW,194,0.0,0.0,85,0.00,,---,0.00,VWS V14.00,2013-03-11 08:54:00,
2013-03-11 04:59:00,39.9,35.8,30.26,SSW,194,0.0,0.0,85,0.00,,---,0.00,VWS V14.00,2013-03-11 08:59:00,
2013-03-11 05:04:00,39.9,35.8,30.26,SSW,194,0.0,0.0,85,0.00,,---,0.00,VWS V14.00,2013-03-11 09:04:00,
2013-03-11 05:09:00,39.9,35.8,30.25,SSW,194,0.0,0.0,85,0.00,,---,0.00,VWS V14.00,2013-03-11 09:09:00,
2013-03-11 05:14:00,39.9,35.8,30.26,SSW,194,0.0,0.0,85,0.00,,---,0.00,VWS V14.00,2013-03-11 09:14:00,
2013-03-11 05:19:00,39.9,35.8,30.25,SSW,194,0.0,0.0,85,0.00,,---,0.00,VWS V14.00,2013-03-11 09:19:00,
2013-03-11 05:24:00,39.9,35.8,30.26,SSW,194,0.0,0.0,85,0.00,,---,0.00,VWS V14.00,2013-03-11 09:24:00,
2013-03-11 05:29:00,39.9,36.1,30.26,SSW,194,0.0,0.0,86,0.00,,---,0.00,VWS V14.00,2013-03-11 09:29:00,
2013-03-11 05:34:00,39.9,36.1,30.25,SSW,194,0.0,0.0,86,0.00,,---,0.00,VWS V14.00,2013-03-11 09:34:00,
2013-03-11 05:39:00,39.9,36.1,30.25,SSW,194,0.0,0.0,86,0.00,,---,0.00,VWS V14.00,2013-03-11 09:39:00,
2013-03-11 05:44:00,40.0,36.2,30.25,SSW,194,0.0,0.0,86,0.00,,---,0.00,VWS V14.00,2013-03-11 09:44:00,
2013-03-11 05:49:00,40.0,36.2,30.25,SSW,194,0.0,0.0,86,0.00,,---,0.00,VWS V14.00,2013-03-11 09:49:00,
2013-03-11 05:54:00,40.0,36.2,30.25,SSW,194,0.0,0.0,86,0.00,,---,0.00,VWS V14.00,2013-03-11 09:54:00,
2013-03-11 05:59:00,40.0,36.2,30.24,SSW,194,0.0,0.0,86,0.00,,---,0.00,VWS V14.00,2013-03-11 09:59:00,
2013-03-11 06:04:00,40.0,36.2,30.24,SSW,194,0.0,0.0,86,0.00,,---,0.00,VWS V14.00,2013-03-11 10:04:00,
2013-03-11 06:09:00,40.0,36.2,30.25,SSW,194,0.0,0.0,86,0.00,,---,0.00,VWS V14.00,2013-03-11 10:09:00,
2013-03-11 06:14:00,40.0,36.2,30.24,SSW,194,0.0,0.0,86,0.00,,---,0.00,VWS V14.00,2013-03-11 10:14:00,
2013-03-11 06:19:00,40.0,36.2,30.25,SSW,194,0.0,0.0,86,0.00,,---,0.00,VWS V14.00,2013-03-11 10:19:00,
2013-03-11 06:24:00,39.9,36.1,30.25,SSW,194,0.0,0.0,86,0.00,,---,0.00,VWS V14.00,2013-03-11 10:24:00,
2013-03-11 06:29:00,39.9,36.1,30.25,SSW,194,0.0,0.0,86,0.00,,---,0.00,VWS V14.00,2013-03-11 10:29:00,
2013-03-11 06:34:00,40.0,36.2,30.24,SSW,194,0.0,0.0,86,0.00,,---,0.00,VWS V14.00,2013-03-11 10:34:00,
2013-03-11 06:39:00,40.0,36.2,30.24,SSW,194,0.0,0.0,86,0.00,,---,0.00,VWS V14.00,2013-03-11 10:39:00,
2013-03-11 06:44:00,40.0,36.2,30.24,SSW,194,0.0,0.0,86,0.00,,---,0.00,VWS V14.00,2013-03-11 10:44:00,
2013-03-11 06:49:00,40.0,36.2,30.24,SSW,194,0.0,0.0,86,0.00,,---,0.00,VWS V14.00,2013-03-11 10:49:00,
2013-03-11 06:54:00,40.1,36.3,30.24,SSW,194,0.0,0.0,86,0.00,,---,0.00,VWS V14.00,2013-03-11 10:54:00,
2013-03-11 06:59:00,40.1,36.3,30.25,SSW,194,0.0,0.0,86,0.00,,---,0.00,VWS V14.00,2013-03-11 10:59:00,
2013-03-11 07:04:00,40.1,36.3,30.25,SSW,194,0.0,0.0,86,0.00,,---,0.00,VWS V14.00,2013-03-11 11:04:00,
2013-03-11 07:09:00,40.1,36.3,30.24,SSW,194,0.0,0.0,86,0.00,,---,0.00,VWS V14.00,2013-03-11 11:09:00,
2013-03-11 07:14:00,40.1,36.3,30.24,SSW,194,0.0,0.0,86,0.00,,---,0.00,VWS V14.00,2013-03-11 11:14:00,
2013-03-11 07:19:00,40.1,36.3,30.24,SSW,194,0.0,0.0,86,0.00,,---,0.00,VWS V14.00,2013-03-11 11:19:00,
2013-03-11 07:24:00,40.1,36.3,30.24,SSW,194,0.0,0.0,86,0.00,,---,0.00,VWS V14.00,2013-03-11 11:24:00,
2013-03-11 07:29:00,40.1,36.3,30.24,SSW,194,0.0,0.0,86,0.00,,---,0.00,VWS V14.00,2013-03-11 11:29:00,
2013-03-11 07:34:00,40.2,36.7,30.24,SSW,194,0.0,0.0,87,0.00,,---,0.00,VWS V14.00,2013-03-11 11:34:00,
2013-03-11 07:39:00,40.2,36.7,30.24,SSW,194,0.0,0.0,87,0.00,,---,0.00,VWS V14.00,2013-03-11 11:39:00,
2013-03-11 07:44:00,40.3,36.8,30.24,SSW,194,0.0,0.0,87,0.00,,---,0.00,VWS V14.00,2013-03-11 11:44:00,
2013-03-11 07:49:00,40.3,36.8,30.23,SSW,194,0.0,0.0,87,0.00,,---,0.00,VWS V14.00,2013-03-11 11:49:00,
2013-03-11 07:54:00,40.4,36.8,30.24,SSW,194,0.0,0.0,87,0.00,,---,0.00,VWS V14.00,2013-03-11 11:54:00,
2013-03-11 07:59:00,40.4,36.8,30.23,SSW,194,0.0,0.0,87,0.00,,---,0.00,VWS V14.00,2013-03-11 11:59:00,
2013-03-11 08:04:00,40.5,36.7,30.24,SSW,194,0.0,0.0,86,0.00,,---,0.00,VWS V14.00,2013-03-11 12:04:00,
2013-03-11 08:09:00,40.7,36.8,30.24,SSW,194,0.0,0.0,86,0.00,,---,0.00,VWS V14.00,2013-03-11 12:09:00,
2013-03-11 08:15:00,40.7,36.8,30.24,SSW,194,0.0,0.0,86,0.00,,---,0.00,VWS V14.00,2013-03-11 12:15:00,
2013-03-11 08:20:00,40.8,36.9,30.24,SSW,194,0.0,0.0,86,0.00,,---,0.00,VWS V14.00,2013-03-11 12:20:00,
2013-03-11 08:24:00,40.9,37.0,30.25,SSW,194,0.0,0.0,86,0.00,,---,0.00,VWS V14.00,2013-03-11 12:24:00,
2013-03-11 08:29:00,41.0,38.3,30.24,SSW,193,2.0,4.0,90,0.00,,---,0.00,VWS V14.00,2013-03-11 12:29:00,
2013-03-11 08:34:00,41.1,36.9,30.24,South,182,2.0,4.0,85,0.00,,---,0.00,VWS V14.00,2013-03-11 12:34:00,
2013-03-11 08:40:00,41.3,37.1,30.25,South,182,0.0,4.0,85,0.00,,---,0.00,VWS V14.00,2013-03-11 12:40:00,
2013-03-11 08:45:00,41.4,37.2,30.25,South,182,0.0,4.0,85,0.00,,---,0.00,VWS V14.00,2013-03-11 12:45:00,
2013-03-11 08:50:00,41.6,37.4,30.25,South,182,0.0,4.0,85,0.00,,---,0.00,VWS V14.00,2013-03-11 12:50:00,
2013-03-11 08:55:00,41.7,37.5,30.25,South,182,0.0,4.0,85,0.00,,---,0.00,VWS V14.00,2013-03-11 12:55:00,
2013-03-11 09:00:00,41.9,37.7,30.25,South,182,0.0,0.0,85,0.00,,---,0.00,VWS V14.00,2013-03-11 13:00:00,
2013-03-11 09:05:00,42.2,38.0,30.25,South,170,4.0,6.0,85,0.00,,---,0.00,VWS V14.00,2013-03-11 13:05:00,
2013-03-11 09:10:00,42.4,37.9,30.25,SSE,167,1.0,6.0,84,0.00,,---,0.00,VWS V14.00,2013-03-11 13:10:00,
2013-03-11 09:15:00,42.5,38.0,30.25,SSE,167,0.0,6.0,84,0.00,,---,0.00,VWS V14.00,2013-03-11 13:15:00,
2013-03-11 09:20:00,42.8,38.3,30.25,SSE,167,0.0,6.0,84,0.00,,---,0.00,VWS V14.00,2013-03-11 13:20:00,
2013-03-11 09:25:00,43.0,38.5,30.25,SSE,167,1.0,6.0,84,0.00,,---,0.00,VWS V14.00,2013-03-11 13:25:00,
2013-03-11 09:30:00,43.1,38.6,30.25,SSE,167,0.0,0.0,84,0.00,,---,0.00,VWS V14.00,2013-03-11 13:30:00,
2013-03-11 09:35:00,43.3,38.5,30.25,SSE,167,0.0,0.0,83,0.00,,---,0.00,VWS V14.00,2013-03-11 13:35:00,
2013-03-11 09:40:00,43.5,38.7,30.25,SSE,167,1.0,4.0,83,0.00,,---,0.00,VWS V14.00,2013-03-11 13:40:00,
2013-03-11 09:45:00,43.6,38.8,30.26,SSE,167,0.0,4.0,83,0.00,,---,0.00,VWS V14.00,2013-03-11 13:45:00,
2013-03-11 09:50:00,43.7,38.9,30.25,SSE,167,0.0,4.0,83,0.00,,---,0.00,VWS V14.00,2013-03-11 13:50:00,
2013-03-11 09:55:00,43.9,39.1,30.25,SSE,167,0.0,4.0,83,0.00,,---,0.00,VWS V14.00,2013-03-11 13:55:00,
2013-03-11 10:00:00,44.1,39.3,30.25,SSE,167,0.0,0.0,83,0.00,,---,0.00,VWS V14.00,2013-03-11 14:00:00,
2013-03-11 10:05:00,44.3,39.5,30.25,SSE,167,0.0,0.0,83,0.00,,---,0.00,VWS V14.00,2013-03-11 14:05:00,
2013-03-11 10:10:00,44.6,39.5,30.25,SSE,167,0.0,0.0,82,0.00,,---,0.00,VWS V14.00,2013-03-11 14:10:00,
2013-03-11 10:15:00,44.9,39.8,30.25,SSE,167,0.0,0.0,82,0.00,,---,0.00,VWS V14.00,2013-03-11 14:15:00,
2013-03-11 10:20:00,45.3,40.5,30.25,SSE,167,0.0,0.0,83,0.00,,---,0.00,VWS V14.00,2013-03-11 14:20:00,
2013-03-11 10:25:00,45.9,41.0,30.25,SW,222,4.0,5.0,83,0.00,,---,0.00,VWS V14.00,2013-03-11 14:25:00,
2013-03-11 10:30:00,46.6,41.7,30.25,SW,220,1.0,6.0,83,0.00,,---,0.00,VWS V14.00,2013-03-11 14:30:00,
2013-03-11 10:35:00,47.2,42.0,30.25,South,190,0.0,10.0,82,0.00,,---,0.00,VWS V14.00,2013-03-11 14:35:00,
2013-03-11 10:40:00,47.7,42.2,30.25,SW,217,7.0,10.0,81,0.00,,---,0.00,VWS V14.00,2013-03-11 14:40:00,
2013-03-11 10:45:00,48.1,41.9,30.25,SSW,204,4.0,15.0,79,0.00,,---,0.00,VWS V14.00,2013-03-11 14:45:00,
2013-03-11 10:50:00,48.2,41.7,30.25,SW,229,3.0,15.0,78,0.00,,---,0.00,VWS V14.00,2013-03-11 14:50:00,
2013-03-11 10:55:00,48.2,41.7,30.25,South,190,3.0,15.0,78,0.00,,---,0.00,VWS V14.00,2013-03-11 14:55:00,
2013-03-11 11:00:00,48.2,41.7,30.24,SSW,202,3.0,5.0,78,0.00,,---,0.00,VWS V14.00,2013-03-11 15:00:00,
2013-03-11 11:05:00,48.4,42.2,30.24,South,176,0.0,6.0,79,0.00,,---,0.00,VWS V14.00,2013-03-11 15:05:00,
2013-03-11 11:10:00,48.5,42.0,30.24,SSW,192,4.0,7.0,78,0.00,,---,0.00,VWS V14.00,2013-03-11 15:10:00,
2013-03-11 11:15:00,48.6,42.1,30.23,South,174,4.0,12.0,78,0.00,,---,0.00,VWS V14.00,2013-03-11 15:15:00,
2013-03-11 11:20:00,48.8,42.3,30.23,South,169,7.0,12.0,78,0.00,,---,0.00,VWS V14.00,2013-03-11 15:20:00,
2013-03-11 11:25:00,48.9,42.0,30.23,SSW,194,4.0,12.0,77,0.00,,---,0.00,VWS V14.00,2013-03-11 15:25:00,
2013-03-11 11:30:00,49.0,42.1,30.23,SSE,163,8.0,9.0,77,0.00,,---,0.00,VWS V14.00,2013-03-11 15:30:00,
2013-03-11 11:35:00,49.0,42.1,30.22,SSW,210,8.0,9.0,77,0.00,,---,0.00,VWS V14.00,2013-03-11 15:35:00,
2013-03-11 11:40:00,49.1,42.2,30.22,SW,214,2.0,10.0,77,0.00,,---,0.00,VWS V14.00,2013-03-11 15:40:00,
2013-03-11 11:45:00,49.2,42.3,30.22,SW,232,4.0,13.0,77,0.00,,---,0.00,VWS V14.00,2013-03-11 15:45:00,
2013-03-11 11:50:00,49.4,42.2,30.22,SSW,200,8.0,13.0,76,0.00,,---,0.00,VWS V14.00,2013-03-11 15:50:00,
2013-03-11 11:56:00,49.5,42.9,30.22,WNW,294,0.0,13.0,78,0.00,,---,0.00,VWS V14.00,2013-03-11 15:56:00,
2013-03-11 12:01:00,49.9,43.0,30.22,SSW,196,0.0,7.0,77,0.00,,---,0.00,VWS V14.00,2013-03-11 16:01:00,
2013-03-11 12:06:00,50.1,42.8,30.23,SW,219,2.0,8.0,76,0.00,,---,0.00,VWS V14.00,2013-03-11 16:06:00,
2013-03-11 12:11:00,50.3,42.7,30.23,SSW,205,8.0,14.0,75,0.00,,---,0.00,VWS V14.00,2013-03-11 16:11:00,
2013-03-11 12:16:00,50.5,42.9,30.23,SSW,199,8.0,14.0,75,0.00,,---,0.00,VWS V14.00,2013-03-11 16:16:00,
2013-03-11 12:21:00,50.7,43.1,30.22,NNW,327,6.0,15.0,75,0.00,,---,0.00,VWS V14.00,2013-03-11 16:21:00,
2013-03-11 12:26:00,51.0,43.0,30.22,SSW,194,6.0,11.0,74,0.00,,---,0.00,VWS V14.00,2013-03-11 16:26:00,
2013-03-11 12:31:00,51.0,43.0,30.22,North,9,2.0,11.0,74,0.00,,---,0.00,VWS V14.00,2013-03-11 16:31:00,
2013-03-11 12:36:00,51.1,43.5,30.22,SSW,201,5.0,11.0,75,0.00,,---,0.00,VWS V14.00,2013-03-11 16:36:00,
2013-03-11 12:42:00,51.3,43.0,30.21,SSW,194,7.0,11.0,73,0.00,,---,0.00,VWS V14.00,2013-03-11 16:42:00,
2013-03-11 12:47:00,51.7,43.0,30.21,SSW,198,7.0,11.0,72,0.00,,---,0.00,VWS V14.00,2013-03-11 16:47:00,
2013-03-11 12:52:00,52.1,42.6,30.21,SW,231,2.0,11.0,70,0.00,,---,0.00,VWS V14.00,2013-03-11 16:52:00,
2013-03-11 12:57:00,52.1,42.6,30.21,South,185,7.0,7.0,70,0.00,,---,0.00,VWS V14.00,2013-03-11 16:57:00,
2013-03-11 13:02:00,52.3,42.8,30.21,SSW,193,4.0,13.0,70,0.00,,---,0.00,VWS V14.00,2013-03-11 17:02:00,
2013-03-11 13:07:00,52.5,42.6,30.21,SSW,202,7.0,13.0,69,0.00,,---,0.00,VWS V14.00,2013-03-11 17:07:00,
2013-03-11 13:12:00,52.8,42.9,30.21,SW,220,10.0,13.0,69,0.00,,---,0.00,VWS V14.00,2013-03-11 17:12:00,
2013-03-11 13:17:00,53.0,42.7,30.20,SSW,201,8.0,13.0,68,0.00,,---,0.00,VWS V14.00,2013-03-11 17:17:00,
2013-03-11 13:22:00,53.3,43.0,30.19,SW,232,12.0,14.0,68,0.00,,---,0.00,VWS V14.00,2013-03-11 17:22:00,
2013-03-11 13:27:00,53.5,42.4,30.19,SSW,200,4.0,11.0,66,0.00,,---,0.00,VWS V14.00,2013-03-11 17:27:00,
2013-03-11 13:32:00,53.9,43.2,30.19,WSW,254,10.0,11.0,67,0.00,,---,0.00,VWS V14.00,2013-03-11 17:32:00,
2013-03-11 13:37:00,53.9,42.4,30.19,SSW,197,3.0,16.0,65,0.00,,---,0.00,VWS V14.00,2013-03-11 17:37:00,
2013-03-11 13:42:00,53.7,41.8,30.19,SW,228,0.0,16.0,64,0.00,,---,0.00,VWS V14.00,2013-03-11 17:42:00,
2013-03-11 13:47:00,53.5,42.0,30.19,SW,214,4.0,16.0,65,0.00,,---,0.00,VWS V14.00,2013-03-11 17:47:00,
2013-03-11 13:52:00,53.5,42.8,30.18,WNW,300,1.0,16.0,67,0.00,,---,0.00,VWS V14.00,2013-03-11 17:52:00,
2013-03-11 13:58:00,53.9,42.4,30.18,SW,218,3.0,8.0,65,0.00,,---,0.00,VWS V14.00,2013-03-11 17:58:00,
2013-03-11 14:03:00,53.9,42.8,30.18,South,178,2.0,8.0,66,0.00,,---,0.00,VWS V14.00,2013-03-11 18:03:00,
2013-03-11 14:08:00,54.1,42.6,30.18,SW,221,0.0,8.0,65,0.00,,---,0.00,VWS V14.00,2013-03-11 18:08:00,
2013-03-11 14:13:00,54.5,43.4,30.18,SSW,203,4.0,8.0,66,0.00,,---,0.00,VWS V14.00,2013-03-11 18:13:00,
2013-03-11 14:18:00,54.8,43.3,30.18,SSE,157,4.0,10.0,65,0.00,,---,0.00,VWS V14.00,2013-03-11 18:18:00,
2013-03-11 14:23:00,55.0,43.9,30.18,SSE,148,0.0,10.0,66,0.00,,---,0.00,VWS V14.00,2013-03-11 18:23:00,
2013-03-11 14:28:00,55.2,44.0,30.18,South,173,9.0,12.0,66,0.00,,---,0.00,VWS V14.00,2013-03-11 18:28:00,
2013-03-11 14:33:00,55.3,43.8,30.17,South,170,0.0,12.0,65,0.00,,---,0.00,VWS V14.00,2013-03-11 18:33:00,
2013-03-11 14:38:00,55.3,44.2,30.17,SSE,151,4.0,12.0,66,0.00,,---,0.00,VWS V14.00,2013-03-11 18:38:00,
2013-03-11 14:43:00,55.3,44.5,30.17,South,175,4.0,12.0,67,0.00,,---,0.00,VWS V14.00,2013-03-11 18:43:00,
2013-03-11 14:48:00,55.4,44.2,30.17,SE,137,7.0,12.0,66,0.00,,---,0.00,VWS V14.00,2013-03-11 18:48:00,
2013-03-11 14:53:00,55.4,43.8,30.17,SSW,201,3.0,17.0,65,0.00,,---,0.00,VWS V14.00,2013-03-11 18:53:00,
2013-03-11 14:58:00,55.4,44.2,30.16,SSE,167,5.0,8.0,66,0.00,,---,0.00,VWS V14.00,2013-03-11 18:58:00,
2013-03-11 15:03:00,55.4,44.2,30.16,South,176,7.0,10.0,66,0.00,,---,0.00,VWS V14.00,2013-03-11 19:03:00,
2013-03-11 15:08:00,55.4,43.8,30.16,South,188,2.0,10.0,65,0.00,,---,0.00,VWS V14.00,2013-03-11 19:08:00,
2013-03-11 15:13:00,55.4,44.2,30.16,ESE,113,4.0,15.0,66,0.00,,---,0.00,VWS V14.00,2013-03-11 19:13:00,
2013-03-11 15:18:00,55.4,43.8,30.16,SSW,197,5.0,15.0,65,0.00,,---,0.00,VWS V14.00,2013-03-11 19:18:00,
2013-03-11 15:23:00,55.3,44.2,30.15,South,170,16.0,16.0,66,0.00,,---,0.00,VWS V14.00,2013-03-11 19:23:00,
2013-03-11 15:28:00,55.0,43.9,30.15,South,180,4.0,11.0,66,0.00,,---,0.00,VWS V14.00,2013-03-11 19:28:00,
2013-03-11 15:33:00,54.9,43.8,30.15,SE,136,7.0,12.0,66,0.00,,---,0.00,VWS V14.00,2013-03-11 19:33:00,
2013-03-11 15:38:00,55.0,43.9,30.16,SSW,192,6.0,12.0,66,0.00,,---,0.00,VWS V14.00,2013-03-11 19:38:00,
2013-03-11 15:43:00,54.9,43.8,30.16,SSW,192,6.0,12.0,66,0.00,,---,0.00,VWS V14.00,2013-03-11 19:43:00,
2013-03-11 15:48:00,54.9,43.8,30.16,South,184,5.0,12.0,66,0.00,,---,0.00,VWS V14.00,2013-03-11 19:48:00,
2013-03-11 15:53:00,54.8,44.1,30.15,South,173,7.0,13.0,67,0.00,,---,0.00,VWS V14.00,2013-03-11 19:53:00,
2013-03-11 15:58:00,54.7,44.0,30.15,SSE,156,7.0,11.0,67,0.00,,---,0.00,VWS V14.00,2013-03-11 19:58:00,
2013-03-11 16:03:00,54.5,44.2,30.15,ESE,119,0.0,13.0,68,0.00,,---,0.00,VWS V14.00,2013-03-11 20:03:00,
2013-03-11 16:08:00,54.5,44.2,30.15,SE,137,11.0,13.0,68,0.00,,---,0.00,VWS V14.00,2013-03-11 20:08:00,
2013-03-11 16:13:00,54.5,44.5,30.14,SE,130,8.0,13.0,69,0.00,,---,0.00,VWS V14.00,2013-03-11 20:13:00,
2013-03-11 16:18:00,54.4,44.5,30.14,South,175,0.0,13.0,69,0.00,,---,0.00,VWS V14.00,2013-03-11 20:18:00,
2013-03-11 16:23:00,54.4,44.5,30.14,SSE,168,6.0,13.0,69,0.00,,---,0.00,VWS V14.00,2013-03-11 20:23:00,
2013-03-11 16:28:00,54.1,44.5,30.14,SE,136,4.0,10.0,70,0.00,,---,0.00,VWS V14.00,2013-03-11 20:28:00,
2013-03-11 16:33:00,53.9,44.7,30.14,South,179,7.0,10.0,71,0.00,,---,0.00,VWS V14.00,2013-03-11 20:33:00,
2013-03-11 16:38:00,53.6,44.4,30.14,SSW,196,8.0,16.0,71,0.00,,---,0.00,VWS V14.00,2013-03-11 20:38:00,
2013-03-11 16:43:00,53.3,44.5,30.14,South,175,10.0,16.0,72,0.00,,---,0.00,VWS V14.00,2013-03-11 20:43:00,
2013-03-11 16:49:00,53.1,44.7,30.14,SSW,200,5.0,16.0,73,0.00,,---,0.00,VWS V14.00,2013-03-11 20:49:00,
2013-03-11 16:54:00,53.0,44.6,30.13,SE,137,7.0,16.0,73,0.00,,---,0.00,VWS V14.00,2013-03-11 20:54:00,
2013-03-11 16:59:00,52.9,44.5,30.13,South,182,3.0,10.0,73,0.00,,---,0.00,VWS V14.00,2013-03-11 20:59:00,
2013-03-11 17:04:00,52.8,44.8,30.13,South,190,10.0,13.0,74,0.00,,---,0.00,VWS V14.00,2013-03-11 21:04:00,
2013-03-11 17:09:00,52.5,44.5,30.13,SSE,167,9.0,13.0,74,0.00,,---,0.00,VWS V14.00,2013-03-11 21:09:00,
2013-03-11 17:14:00,52.3,44.6,30.13,SE,146,5.0,14.0,75,0.00,,---,0.00,VWS V14.00,2013-03-11 21:14:00,
2013-03-11 17:19:00,52.2,44.5,30.13,SSE,162,7.0,14.0,75,0.00,,---,0.00,VWS V14.00,2013-03-11 21:19:00,
2013-03-11 17:24:00,52.2,44.9,30.13,SSW,192,13.0,14.0,76,0.00,,---,0.00,VWS V14.00,2013-03-11 21:24:00,
2013-03-11 17:29:00,52.1,44.8,30.13,South,175,7.0,9.0,76,0.00,,---,0.00,VWS V14.00,2013-03-11 21:29:00,
2013-03-11 17:34:00,52.1,44.8,30.13,South,178,5.0,11.0,76,0.00,,---,0.00,VWS V14.00,2013-03-11 21:34:00,
2013-03-11 17:39:00,52.0,44.7,30.13,SSW,212,6.0,14.0,76,0.00,,---,0.00,VWS V14.00,2013-03-11 21:39:00,
2013-03-11 17:44:00,52.0,44.7,30.13,SSE,168,10.0,14.0,76,0.00,,---,0.00,VWS V14.00,2013-03-11 21:44:00,
2013-03-11 17:49:00,51.9,44.6,30.12,SSW,192,4.0,14.0,76,0.00,,---,0.00,VWS V14.00,2013-03-11 21:49:00,
2013-03-11 17:54:00,51.8,44.5,30.12,SE,136,9.0,14.0,76,0.00,,---,0.00,VWS V14.00,2013-03-11 21:54:00,
2013-03-11 17:59:00,51.8,44.8,30.12,South,188,4.0,14.0,77,0.00,,---,0.00,VWS V14.00,2013-03-11 21:59:00,
2013-03-11 18:04:00,51.7,44.7,30.13,South,175,9.0,16.0,77,0.00,,---,0.00,VWS V14.00,2013-03-11 22:04:00,
2013-03-11 18:09:00,51.6,44.6,30.13,South,175,5.0,16.0,77,0.00,,---,0.00,VWS V14.00,2013-03-11 22:09:00,
2013-03-11 18:14:00,51.5,44.5,30.12,SSW,198,3.0,16.0,77,0.00,,---,0.00,VWS V14.00,2013-03-11 22:14:00,
2013-03-11 18:19:00,51.5,44.5,30.12,SE,138,4.0,16.0,77,0.00,,---,0.00,VWS V14.00,2013-03-11 22:19:00,
2013-03-11 18:24:00,51.4,44.4,30.12,South,173,8.0,16.0,77,0.00,,---,0.00,VWS V14.00,2013-03-11 22:24:00,
2013-03-11 18:29:00,51.3,44.7,30.12,SSE,163,7.0,10.0,78,0.00,,---,0.00,VWS V14.00,2013-03-11 22:29:00,
2013-03-11 18:34:00,51.2,44.6,30.12,South,185,7.0,14.0,78,0.00,,---,0.00,VWS V14.00,2013-03-11 22:34:00,
2013-03-11 18:39:00,51.1,44.5,30.11,South,175,8.0,14.0,78,0.00,,---,0.00,VWS V14.00,2013-03-11 22:39:00,
2013-03-11 18:44:00,51.0,44.7,30.12,South,174,6.0,14.0,79,0.00,,---,0.00,VWS V14.00,2013-03-11 22:44:00,
2013-03-11 18:49:00,51.0,44.7,30.12,SSW,204,7.0,14.0,79,0.00,,---,0.00,VWS V14.00,2013-03-11 22:49:00,
2013-03-11 18:54:00,50.9,45.0,30.12,SSW,207,7.0,14.0,80,0.00,,---,0.00,VWS V14.00,2013-03-11 22:54:00,
2013-03-11 18:59:00,50.9,45.0,30.11,SSE,159,2.0,15.0,80,0.00,,---,0.00,VWS V14.00,2013-03-11 22:59:00,
2013-03-11 19:04:00,50.8,44.9,30.11,South,190,3.0,15.0,80,0.00,,---,0.00,VWS V14.00,2013-03-11 23:04:00,
2013-03-11 19:09:00,50.8,45.2,30.11,SW,216,10.0,15.0,81,0.00,,---,0.00,VWS V14.00,2013-03-11 23:09:00,
2013-03-11 19:14:00,50.7,45.1,30.12,South,182,3.0,15.0,81,0.00,,---,0.00,VWS V14.00,2013-03-11 23:14:00,
2013-03-11 19:19:00,50.7,45.1,30.12,South,178,9.0,15.0,81,0.00,,---,0.00,VWS V14.00,2013-03-11 23:19:00,
2013-03-11 19:24:00,50.7,45.4,30.11,SSW,192,1.0,15.0,82,0.00,,---,0.00,VWS V14.00,2013-03-11 23:24:00,
2013-03-11 19:29:00,50.6,45.3,30.12,SSW,205,4.0,11.0,82,0.00,,---,0.00,VWS V14.00,2013-03-11 23:29:00,
2013-03-11 19:34:00,50.6,45.3,30.12,SSW,210,11.0,12.0,82,0.00,,---,0.00,VWS V14.00,2013-03-11 23:34:00,
2013-03-11 19:39:00,50.5,45.2,30.12,SSW,208,9.0,12.0,82,0.00,,---,0.00,VWS V14.00,2013-03-11 23:39:00,
2013-03-11 19:44:00,50.4,45.4,30.12,SSE,161,5.0,12.0,83,0.00,,---,0.00,VWS V14.00,2013-03-11 23:44:00,
2013-03-11 19:49:00,50.3,45.3,30.12,South,180,2.0,12.0,83,0.00,,---,0.00,VWS V14.00,2013-03-11 23:49:00,
2013-03-11 19:54:00,50.2,45.2,30.11,South,184,7.0,12.0,83,0.00,,---,0.00,VWS V14.00,2013-03-11 23:54:00,
2013-03-11 19:59:00,50.0,45.0,30.12,South,181,7.0,9.0,83,0.00,,---,0.00,VWS V14.00,2013-03-11 23:59:00,
2013-03-11 20:05:00,49.9,45.3,30.12,SSW,194,1.0,9.0,84,0.00,,---,0.00,VWS V14.00,2013-03-12 00:05:00,
2013-03-11 20:10:00,49.9,45.3,30.12,South,183,4.0,9.0,84,0.00,,---,0.00,VWS V14.00,2013-03-12 00:10:00,
2013-03-11 20:15:00,49.8,45.2,30.13,SSW,198,3.0,9.0,84,0.00,,---,0.00,VWS V14.00,2013-03-12 00:15:00,
2013-03-11 20:20:00,49.9,45.3,30.13,SSW,196,3.0,9.0,84,0.00,,---,0.00,VWS V14.00,2013-03-12 00:20:00,
2013-03-11 20:25:00,49.9,45.3,30.13,South,170,6.0,9.0,84,0.00,,---,0.00,VWS V14.00,2013-03-12 00:25:00,
2013-03-11 20:30:00,49.9,45.6,30.13,South,175,4.0,8.0,85,0.00,,---,0.00,VWS V14.00,2013-03-12 00:30:00,
2013-03-11 20:35:00,50.0,45.7,30.13,SW,236,5.0,10.0,85,0.00,,---,0.00,VWS V14.00,2013-03-12 00:35:00,
2013-03-11 20:40:00,50.1,45.8,30.12,SSW,200,5.0,10.0,85,0.00,,---,0.00,VWS V14.00,2013-03-12 00:40:00,
2013-03-11 20:45:00,50.2,45.9,30.13,South,184,0.0,10.0,85,0.00,,---,0.00,VWS V14.00,2013-03-12 00:45:00,
2013-03-11 20:50:00,50.3,46.0,30.12,SSW,194,2.0,10.0,85,0.00,,---,0.00,VWS V14.00,2013-03-12 00:50:00,
2013-03-11 20:55:00,50.3,46.0,30.12,South,177,6.0,10.0,85,0.00,,---,0.00,VWS V14.00,2013-03-12 00:55:00,
2013-03-11 21:00:00,50.3,46.0,30.11,South,175,1.0,6.0,85,0.00,,---,0.00,VWS V14.00,2013-03-12 01:00:00,
2013-03-11 21:05:00,50.3,46.0,30.11,SSE,167,2.0,7.0,85,0.00,,---,0.00,VWS V14.00,2013-03-12 01:05:00,
2013-03-11 21:10:00,50.4,46.1,30.10,South,175,5.0,7.0,85,0.00,,---,0.00,VWS V14.00,2013-03-12 01:10:00,
2013-03-11 21:15:00,50.4,46.1,30.10,South,187,0.0,7.0,85,0.00,,---,0.00,VWS V14.00,2013-03-12 01:15:00,
2013-03-11 21:20:00,50.4,46.1,30.10,South,185,0.0,7.0,85,0.00,,---,0.00,VWS V14.00,2013-03-12 01:20:00,
2013-03-11 21:25:00,50.4,46.1,30.10,SSW,205,5.0,7.0,85,0.00,,---,0.00,VWS V14.00,2013-03-12 01:25:00,
2013-03-11 21:30:00,50.5,46.5,30.10,SSE,157,2.0,7.0,86,0.00,,---,0.00,VWS V14.00,2013-03-12 01:30:00,
2013-03-11 21:35:00,50.5,46.5,30.10,SSW,197,2.0,7.0,86,0.00,,---,0.00,VWS V14.00,2013-03-12 01:35:00,
2013-03-11 21:40:00,50.6,46.6,30.11,South,188,3.0,7.0,86,0.00,,---,0.00,VWS V14.00,2013-03-12 01:40:00,
2013-03-11 21:45:00,50.7,46.7,30.10,South,182,2.0,7.0,86,0.00,,---,0.00,VWS V14.00,2013-03-12 01:45:00,
2013-03-11 21:50:00,50.8,46.8,30.11,SSW,192,1.0,7.0,86,0.00,,---,0.00,VWS V14.00,2013-03-12 01:50:00,
2013-03-11 21:55:00,50.9,46.9,30.11,South,189,2.0,7.0,86,0.00,,---,0.00,VWS V14.00,2013-03-12 01:55:00,
2013-03-11 22:00:00,50.9,46.9,30.11,South,189,0.0,0.0,86,0.00,,---,0.00,VWS V14.00,2013-03-12 02:00:00,
2013-03-11 22:05:00,50.9,46.9,30.11,South,189,0.0,0.0,86,0.00,,---,0.00,VWS V14.00,2013-03-12 02:05:00,
2013-03-11 22:10:00,50.9,46.9,30.11,South,189,0.0,0.0,86,0.00,,---,0.00,VWS V14.00,2013-03-12 02:10:00,
2013-03-11 22:15:00,50.9,46.9,30.10,South,189,0.0,0.0,86,0.00,,---,0.00,VWS V14.00,2013-03-12 02:15:00,
2013-03-11 22:20:00,50.8,46.8,30.10,SSE,150,4.0,5.0,86,0.00,,---,0.00,VWS V14.00,2013-03-12 02:20:00,
2013-03-11 22:25:00,50.8,46.8,30.10,SE,127,2.0,7.0,86,0.00,,---,0.00,VWS V14.00,2013-03-12 02:25:00,
2013-03-11 22:30:00,50.8,46.8,30.10,SE,138,0.0,6.0,86,0.00,,---,0.00,VWS V14.00,2013-03-12 02:30:00,
2013-03-11 22:35:00,50.7,46.7,30.10,South,179,5.0,6.0,86,0.00,,---,0.00,VWS V14.00,2013-03-12 02:35:00,
2013-03-11 22:40:00,50.7,46.7,30.10,SSW,204,0.0,6.0,86,0.00,,---,0.00,VWS V14.00,2013-03-12 02:40:00,
2013-03-11 22:45:00,50.7,46.7,30.10,SSW,213,1.0,6.0,86,0.00,,---,0.00,VWS V14.00,2013-03-12 02:45:00,
2013-03-11 22:50:00,50.7,46.7,30.10,SSW,194,2.0,6.0,86,0.00,,---,0.00,VWS V14.00,2013-03-12 02:50:00,
2013-03-11 22:55:00,50.7,47.0,30.09,SSW,196,0.0,6.0,87,0.00,,---,0.00,VWS V14.00,2013-03-12 02:55:00,
2013-03-11 23:00:00,50.7,47.0,30.09,SSW,196,0.0,3.0,87,0.00,,---,0.00,VWS V14.00,2013-03-12 03:00:00,
2013-03-11 23:05:00,50.7,47.0,30.09,SSW,196,0.0,3.0,87,0.00,,---,0.00,VWS V14.00,2013-03-12 03:05:00,
2013-03-11 23:10:00,50.7,47.0,30.09,South,185,6.0,6.0,87,0.00,,---,0.00,VWS V14.00,2013-03-12 03:10:00,
2013-03-11 23:15:00,50.8,47.1,30.09,SSW,211,7.0,9.0,87,0.00,,---,0.00,VWS V14.00,2013-03-12 03:15:00,
2013-03-11 23:20:00,50.9,47.2,30.09,SSW,198,5.0,13.0,87,0.00,,---,0.00,VWS V14.00,2013-03-12 03:20:00,
2013-03-11 23:25:00,50.9,47.5,30.09,South,183,1.0,13.0,88,0.00,,---,0.00,VWS V14.00,2013-03-12 03:25:00,
2013-03-11 23:30:00,50.9,47.5,30.09,SSE,166,6.0,12.0,88,0.00,,---,0.00,VWS V14.00,2013-03-12 03:30:00,
2013-03-11 23:35:00,50.9,47.5,30.09,SSE,163,6.0,12.0,88,0.00,,---,0.00,VWS V14.00,2013-03-12 03:35:00,
2013-03-11 23:40:00,50.8,47.4,30.09,South,170,6.0,12.0,88,0.00,,---,0.00,VWS V14.00,2013-03-12 03:40:00,
2013-03-11 23:45:00,50.7,47.3,30.09,South,175,6.0,12.0,88,0.00,,---,0.00,VWS V14.00,2013-03-12 03:45:00,
2013-03-11 23:51:00,50.6,47.2,30.09,South,174,7.0,14.0,88,0.00,,---,0.00,VWS V14.00,2013-03-12 03:51:00,
2013-03-11 23:56:00,50.6,47.2,30.08,SSE,165,4.0,14.0,88,0.00,,---,0.00,VWS V14.00,2013-03-12 03:56:00,